Location: Adrasan
(36.3319°N, 30.4314°E)
Time: 02:44:05
(UTC+00:00)

COSMO-SKYMED 1 - Pass Details

Date: 22 October 2025
Orbit: 580 x 582 km, 97.9° (Epoch: 13 November)

Event Time Altitude Azimuth Distance (km) Brightness Sun altitude
Rises 16:33:12 0° 6° (N) 2,805 5.9 -16.8°
Reaches altitude 10° 16:35:25 10° 1° (N) 1,901 5.0 -17.2°
Maximum altitude 16:39:23 50° 286° (WNW) 747 3.4 -18.0°
Drops below altitude 10° 16:43:21 10° 211° (SSW) 1,887 5.4 -18.8°
Sets 16:45:31 0° 206° (SSW) 2,782 6.3 -19.3°
